When you browse on this site, cookies collect data to enhance your experience and personalize the content and advertising you see.
Visit our Privacy Policy to learn more. By continuing to use the site, you agree to this use of cookies and data.
  • In Lithuania
  • List of Countries
  • For 7 days
  • Water Temperature
  • Weather Map
  • Weather Widgets
  • user-avatar
    Login

    Hourly Weather Norwich

    Today, 29 May, Friday

    Time Temperature Precipitation Wind Pressure Humidity
    00:00 +9°C° 0 mm 2 mps 771 mmHg 84%
    01:00 +8°C° 0 mm 2 mps 771 mmHg 86%
    02:00 +8°C° 0 mm 2 mps 771 mmHg 89%
    03:00 +8°C° 0 mm 2 mps 771 mmHg 91%
    04:00 +9°C° 0 mm 3 mps 770 mmHg 88%
    05:00 +10°C° 0 mm 3 mps 770 mmHg 85%
    06:00 +12°C° 0 mm 3 mps 770 mmHg 82%
    07:00 +13°C° 0 mm 3 mps 770 mmHg 75%
    08:00 +14°C° 0 mm 3 mps 770 mmHg 67%
    09:00 +16°C° 0 mm 3 mps 770 mmHg 59%
    10:00 +17°C° 0 mm 4 mps 770 mmHg 58%
    11:00 +17°C° 0 mm 4 mps 770 mmHg 56%
    12:00 +18°C° 0 mm 4 mps 769 mmHg 55%
    13:00 +17°C° 0 mm 4 mps 769 mmHg 56%
    14:00 +17°C° 0 mm 4 mps 769 mmHg 58%
    15:00 +17°C° 0 mm 4 mps 768 mmHg 59%
    16:00 +15°C° 0 mm 4 mps 768 mmHg 62%
    17:00 +14°C° 0 mm 4 mps 768 mmHg 66%
    18:00 +13°C° 0 mm 4 mps 767 mmHg 69%
    19:00 +12°C° 0 mm 4 mps 767 mmHg 75%
    20:00 +10°C° 0 mm 4 mps 767 mmHg 82%
    21:00 +7°C° 0 mm 4 mps 768 mmHg 88%
    22:00 +8°C° 0 mm 3 mps 768 mmHg 89%
    23:00 +8°C° 0 mm 3 mps 768 mmHg 90%

    Tomorrow, 30 May, Saturday

    Time Temperature Precipitation Wind Pressure Humidity
    00:00 +8°C° 0 mm 3 mps 768 mmHg 91%
    01:00 +8°C° 0 mm 3 mps 767 mmHg 92%
    02:00 +8°C° 0 mm 3 mps 767 mmHg 93%
    03:00 +8°C° 0 mm 4 mps 767 mmHg 94%
    04:00 +10°C° 0 mm 4 mps 767 mmHg 92%
    05:00 +11°C° 0 mm 4 mps 767 mmHg 90%
    06:00 +12°C° 0 mm 4 mps 767 mmHg 88%
    07:00 +14°C° 0 mm 4 mps 767 mmHg 82%
    08:00 +15°C° 0 mm 4 mps 767 mmHg 77%
    09:00 +17°C° 0 mm 4 mps 767 mmHg 71%
    10:00 +18°C° 0 mm 4 mps 767 mmHg 68%
    11:00 +17°C° 0 mm 5 mps 767 mmHg 65%
    12:00 +19°C° 0 mm 5 mps 767 mmHg 63%
    13:00 +17°C° 0 mm 5 mps 766 mmHg 63%
    14:00 +17°C° 0 mm 5 mps 766 mmHg 64%
    15:00 +17°C° 0 mm 5 mps 766 mmHg 65%
    16:00 +16°C° 0 mm 5 mps 766 mmHg 68%
    17:00 +16°C° 0 mm 5 mps 766 mmHg 72%
    18:00 +15°C° 0 mm 5 mps 766 mmHg 75%
    19:00 +13°C° 0 mm 5 mps 766 mmHg 80%
    20:00 +12°C° 0 mm 4 mps 766 mmHg 85%
    21:00 +10°C° 0 mm 4 mps 766 mmHg 90%
    22:00 +10°C° 0 mm 4 mps 766 mmHg 90%
    23:00 +10°C° 0 mm 4 mps 767 mmHg 90%

    Day after tomorrow, 31 May, Sunday

    Time Temperature Precipitation Wind Pressure Humidity
    00:00 +8°C° 0 mm 4 mps 767 mmHg 90%
    01:00 +8°C° 0 mm 4 mps 767 mmHg 91%
    02:00 +9°C° 0 mm 3 mps 767 mmHg 92%
    03:00 +9°C° 0 mm 3 mps 767 mmHg 93%
    04:00 +11°C° 0 mm 3 mps 767 mmHg 91%
    05:00 +12°C° 0 mm 3 mps 767 mmHg 89%
    06:00 +13°C° 0 mm 3 mps 767 mmHg 87%
    07:00 +16°C° 0 mm 3 mps 767 mmHg 80%
    08:00 +17°C° 0 mm 3 mps 767 mmHg 73%
    09:00 +18°C° 0 mm 4 mps 767 mmHg 65%
    10:00 +19°C° 0 mm 4 mps 767 mmHg 64%
    11:00 +19°C° 0 mm 4 mps 767 mmHg 62%
    12:00 +19°C° 0 mm 4 mps 767 mmHg 61%
    13:00 +19°C° 0 mm 5 mps 767 mmHg 61%
    14:00 +19°C° 0 mm 5 mps 767 mmHg 62%
    15:00 +17°C° 0 mm 5 mps 767 mmHg 63%
    16:00 +17°C° 0 mm 5 mps 767 mmHg 67%
    17:00 +16°C° 0 mm 5 mps 766 mmHg 71%
    18:00 +15°C° 0 mm 4 mps 766 mmHg 76%
    19:00 +13°C° 0 mm 4 mps 767 mmHg 79%
    20:00 +12°C° 0 mm 4 mps 767 mmHg 83%
    21:00 +10°C° 0 mm 3 mps 767 mmHg 87%
    22:00 +10°C° 0 mm 3 mps 767 mmHg 89%
    23:00 +10°C° 0 mm 3 mps 766 mmHg 91%

    1 June, Monday

    Time Temperature Precipitation Wind Pressure Humidity
    00:00 +9°C° 0 mm 3 mps 766 mmHg 93%
    01:00 +10°C° 0 mm 3 mps 766 mmHg 94%
    02:00 +10°C° 0 mm 3 mps 766 mmHg 94%
    03:00 +10°C° 0 mm 3 mps 766 mmHg 95%
    04:00 +11°C° 0 mm 3 mps 766 mmHg 92%
    05:00 +12°C° 0 mm 3 mps 766 mmHg 89%
    06:00 +13°C° 0 mm 3 mps 766 mmHg 86%
    07:00 +14°C° 0 mm 3 mps 766 mmHg 80%
    08:00 +17°C° 0 mm 4 mps 766 mmHg 74%
    09:00 +18°C° 0 mm 4 mps 766 mmHg 67%
    10:00 +18°C° 0 mm 4 mps 766 mmHg 66%
    11:00 +19°C° 0 mm 4 mps 765 mmHg 64%
    12:00 +19°C° 0 mm 4 mps 765 mmHg 63%
    13:00 +19°C° 0 mm 4 mps 765 mmHg 63%
    14:00 +18°C° 0 mm 4 mps 765 mmHg 63%
    15:00 +18°C° 0 mm 4 mps 765 mmHg 63%
    16:00 +17°C° 0 mm 4 mps 764 mmHg 67%
    17:00 +15°C° 0 mm 4 mps 764 mmHg 71%
    18:00 +14°C° 0 mm 4 mps 764 mmHg 75%
    19:00 +13°C° 0 mm 4 mps 764 mmHg 81%
    20:00 +11°C° 0 mm 3 mps 764 mmHg 87%
    21:00 +10°C° 0 mm 3 mps 764 mmHg 93%
    22:00 +10°C° 0 mm 3 mps 764 mmHg 94%
    23:00 +10°C° 0 mm 2 mps 763 mmHg 94%

    2 June, Tuesday

    Time Temperature Precipitation Wind Pressure Humidity
    00:00 +10°C° 0 mm 2 mps 763 mmHg 94%
    01:00 +10°C° 0 mm 2 mps 763 mmHg 95%
    02:00 +10°C° 0 mm 2 mps 762 mmHg 95%
    03:00 +10°C° 0 mm 3 mps 762 mmHg 95%
    04:00 +11°C° 0 mm 3 mps 762 mmHg 94%
    05:00 +12°C° 0 mm 3 mps 761 mmHg 92%
    06:00 +13°C° 0 mm 3 mps 761 mmHg 90%
    07:00 +14°C° 0 mm 3 mps 761 mmHg 86%
    08:00 +17°C° 0 mm 3 mps 761 mmHg 82%
    09:00 +18°C° 0 mm 3 mps 761 mmHg 78%
    10:00 +19°C° 0 mm 3 mps 761 mmHg 76%
    11:00 +19°C° 0 mm 3 mps 760 mmHg 74%
    12:00 +20°C° 0 mm 3 mps 760 mmHg 73%
    13:00 +20°C° 0.1 mm 3 mps 760 mmHg 73%
    14:00 +20°C° 0.1 mm 3 mps 759 mmHg 74%
    15:00 +20°C° 0.1 mm 4 mps 759 mmHg 74%
    16:00 +19°C° 0.1 mm 4 mps 758 mmHg 77%
    17:00 +18°C° 0.1 mm 4 mps 758 mmHg 79%
    18:00 +17°C° 0.1 mm 4 mps 758 mmHg 82%
    19:00 +16°C° 0 mm 3 mps 758 mmHg 86%
    20:00 +14°C° 0 mm 3 mps 758 mmHg 90%
    21:00 +13°C° 0 mm 3 mps 758 mmHg 93%
    22:00 +13°C° 0 mm 3 mps 757 mmHg 93%
    23:00 +13°C° 0 mm 4 mps 757 mmHg 93%

    3 June, Wednesday

    Time Temperature Precipitation Wind Pressure Humidity
    00:00 +13°C° 0 mm 4 mps 757 mmHg 93%
    01:00 +13°C° 0.1 mm 4 mps 756 mmHg 93%
    02:00 +13°C° 0.1 mm 4 mps 756 mmHg 93%
    03:00 +13°C° 0.1 mm 5 mps 756 mmHg 92%
    04:00 +13°C° 0.5 mm 5 mps 755 mmHg 93%
    05:00 +13°C° 0.5 mm 5 mps 755 mmHg 94%
    06:00 +13°C° 0.5 mm 6 mps 755 mmHg 94%
    07:00 +14°C° 0.2 mm 6 mps 755 mmHg 91%
    08:00 +15°C° 0.2 mm 6 mps 755 mmHg 88%
    09:00 +16°C° 0.2 mm 6 mps 755 mmHg 85%
    10:00 +17°C° 0 mm 6 mps 755 mmHg 83%
    11:00 +17°C° 0 mm 6 mps 755 mmHg 81%
    12:00 +17°C° 0 mm 6 mps 755 mmHg 79%
    13:00 +19°C° 0 mm 6 mps 755 mmHg 78%
    14:00 +19°C° 0 mm 6 mps 754 mmHg 77%
    15:00 +19°C° 0 mm 6 mps 754 mmHg 77%
    16:00 +17°C° 0 mm 7 mps 754 mmHg 79%
    17:00 +16°C° 0 mm 7 mps 754 mmHg 82%
    18:00 +15°C° 0 mm 7 mps 754 mmHg 84%
    19:00 +14°C° 0 mm 7 mps 754 mmHg 87%
    20:00 +14°C° 0 mm 7 mps 755 mmHg 90%
    21:00 +12°C° 0 mm 7 mps 755 mmHg 93%
    22:00 +12°C° 0 mm 7 mps 755 mmHg 92%
    23:00 +12°C° 0 mm 7 mps 755 mmHg 92%
    Show more